Weather History for Cahokia, IL

Change the Weather History Date:

Monday, April 8, 2013

  Actual Average Record
Temperature  
Mean Temperature 67 °F -  
Max Temperature 77 °F 61 °F 86 °F (1959)
Min Temperature 59 °F 45 °F 27 °F (2007)
Cooling Degree Days 2    
Growing Degree Days 17 (Base 50)    
Moisture  
Dew Point 55 °F    
Average Humidity 61    
Maximum Humidity 75    
Minimum Humidity 50    
Precipitation  
Precipitation 0.01 in - - ()
Sea Level Pressure  
Sea Level Pressure 29.80 in    
Wind  
Wind Speed 10 mph (South)    
Max Wind Speed 16 mph    
Max Gust Speed 25 mph    
Visibility 10 miles    
Events      
Averages and records for this station are not official NWS values.
T = Trace of Precipitation, MM = Missing Value Source: NWS Daily Summary

Daily Weather History Graph

Daily Weather History Graph

Search for Another Location

Airport:

Trip Planner

Search our weather history database for the weather conditions in past years. The results will help you decide how hot, cold, wet, or windy it might be!

Date:

Astronomy

Apr. 08, 2013 Rise Set
Actual Time 6:34 AM CDT 7:30 PM CDT
Civil Twilight 6:07 AM CDT 7:58 PM CDT
Nautical Twilight 5:35 AM CDT 8:30 PM CDT
Astronomical Twilight 5:02 AM CDT 9:03 PM CDT
Moon 5:23 AM CDT (4/8) 6:06 PM CDT (4/8)
Length of Visible Light 13h 50m
Length of Day
12h 56m
Waning Crescent, 3% of the Moon is Illuminated
Apr 8
Waning Crescent
Apr 10
New
Apr 18
First Quarter
Apr 25
Full
May 2
Last Quarter

Hourly Weather History & Observations

Time (CDT) Temp. Dew Point Humidity Pressure Visibility Wind Dir Wind Speed Gust Speed Precip Events Conditions
12:53 AM 64.0 °F 55.0 °F 73% 29.79 in 10.0 mi South 11.5 mph 24.2 mph 0.01 in   Partly Cloudy
1:53 AM 64.0 °F 54.0 °F 70% 29.79 in 10.0 mi SSW 11.5 mph 20.7 mph N/A   Clear
2:53 AM 63.0 °F 53.1 °F 70% 29.77 in 10.0 mi South 10.4 mph - N/A   Clear
3:53 AM 63.0 °F 52.0 °F 67% 29.74 in 10.0 mi South 15.0 mph 24.2 mph N/A   Overcast
4:53 AM 62.1 °F 52.0 °F 70% 29.75 in 10.0 mi South 10.4 mph - N/A   Partly Cloudy
5:53 AM 61.0 °F 52.0 °F 72% 29.73 in 10.0 mi South 10.4 mph - N/A   Clear
6:53 AM 59.0 °F 51.1 °F 75% 29.76 in 10.0 mi SE 4.6 mph - N/A   Clear
7:53 AM 64.0 °F 53.1 °F 67% 29.77 in 10.0 mi South 6.9 mph - N/A   Clear
8:53 AM 66.0 °F 54.0 °F 65% 29.78 in 10.0 mi SSW 8.1 mph - N/A   Clear
9:53 AM 66.9 °F 54.0 °F 63% 29.81 in 10.0 mi SW 8.1 mph - N/A   Clear
10:53 AM 71.1 °F 55.9 °F 59% 29.82 in 10.0 mi SSW 9.2 mph 17.3 mph N/A   Clear
11:53 AM 73.9 °F 57.0 °F 55% 29.81 in 10.0 mi SW 8.1 mph - N/A   Clear
12:53 PM 75.9 °F 57.0 °F 52% 29.80 in 10.0 mi SE 4.6 mph - N/A   Clear
1:53 PM 75.9 °F 57.0 °F 52% 29.79 in 10.0 mi South 10.4 mph 17.3 mph N/A   Mostly Cloudy
2:53 PM 75.0 °F 57.0 °F 53% 29.79 in 10.0 mi SSE 13.8 mph 24.2 mph N/A   Scattered Clouds
3:53 PM 75.9 °F 55.9 °F 50% 29.78 in 10.0 mi South 16.1 mph 25.3 mph N/A   Clear
4:33 PM 75.2 °F 55.4 °F 50% 29.79 in 5.0 mi South 13.8 mph 20.7 mph N/A   Haze
4:53 PM 75.9 °F 55.9 °F 50% 29.78 in 8.0 mi South 15.0 mph 24.2 mph N/A   Partly Cloudy
5:53 PM 75.0 °F 55.9 °F 51% 29.79 in 10.0 mi SSE 11.5 mph - N/A   Clear
6:53 PM 73.9 °F 55.9 °F 53% 29.81 in 10.0 mi SSE 8.1 mph - N/A   Partly Cloudy
7:53 PM 71.1 °F 55.0 °F 57% 29.81 in 10.0 mi SSE 5.8 mph - N/A   Clear
8:53 PM 70.0 °F 55.9 °F 61% 29.84 in 10.0 mi SSE 10.4 mph - N/A   Overcast
9:53 PM 70.0 °F 55.9 °F 61% 29.87 in 10.0 mi South 11.5 mph 18.4 mph N/A   Overcast
10:53 PM 70.0 °F 55.9 °F 61% 29.87 in 10.0 mi South 10.4 mph - N/A   Overcast
11:53 PM 69.1 °F 55.9 °F 63% 29.88 in 10.0 mi SSE 5.8 mph - N/A   Overcast